Location: Augustenthal
(51.7167°N, 10.2833°E)
Time: 04:49:55
(UTC+00:00)

Cosmos 1726 - Pass Details

Date: 18 May 2021
Orbit: 479 x 498 km, 82.5° (Epoch: 14 June)

Event Time Altitude Azimuth Distance (km) Brightness Sun altitude
Rises 22:26:59 0° 2° (N) 2,584 7.3 -17.7°
Reaches altitude 10° 22:29:43 10° 24° (NNE) 1,691 5.6 -17.8°
Maximum altitude 22:32:10 17° 65° (ENE) 1,322 4.4 -17.9°
Enters shadow 22:33:57 13° 98° (E) 1,524 4.4 -18.0°
